DW1973 Weather Reports


Display with metric or nautical units.
time (UTC)temp
F
wind
direction
speed
MPH
gust
MPH
rain 1hr
in
rain 24hr
in
rain mn
in
humidity
%
barometer
mb
20260508213918 66 217 2.0 8.0 0.00 0.00 0.00 52 1006.4
20260508213427 66 224 4.0 8.0 0.00 0.00 0.00 50 1006.4
20260508212937 66 207 4.0 7.0 0.00 0.00 0.00 51 1006.4
20260508212445 65 194 3.0 8.0 0.00 0.00 0.00 52 1006.4
20260508211912 65 185 4.0 8.0 0.00 0.00 0.00 51 1006.4
20260508211424 65 202 3.0 7.0 0.00 0.00 0.00 51 1006.4
20260508210914 65 218 3.0 8.0 0.00 0.00 0.00 49 1006.4
20260508210452 66 220 5.0 10.0 0.00 0.00 0.00 48 1006.5
20260508205949 66 138 5.0 10.0 0.00 0.00 0.00 49 1006.4
20260508205435 66 185 5.0 8.0 0.00 0.00 0.00 48 1006.4
20260508204942 67 128 4.0 8.0 0.00 0.00 0.00 49 1006.4
20260508204431 66 192 4.0 8.0 0.00 0.00 0.00 48 1006.4
20260508203921 66 202 4.0 9.0 0.00 0.00 0.00 48 1006.4
20260508203428 66 132 5.0 9.0 0.00 0.00 0.00 48 1006.5
20260508202920 66 225 3.0 9.0 0.00 0.00 0.00 49 1006.6
20260508202427 66 144 3.0 9.0 0.00 0.00 0.00 48 1006.6
20260508201914 66 192 4.0 8.0 0.00 0.00 0.00 46 1006.7
20260508201424 66 194 4.0 8.0 0.00 0.00 0.00 47 1006.8
20260508200913 66 206 5.0 8.0 0.00 0.00 0.00 46 1006.9
20260508200421 66 204 3.0 6.0 0.00 0.00 0.00 48 1007.0
20260508195932 65 175 2.0 4.0 0.00 0.00 0.00 47 1007.0
20260508195420 65 159 1.0 7.0 0.00 0.00 0.00 46 1007.3
20260508194930 65 192 3.0 8.0 0.00 0.00 0.00 47 1007.5
20260508194438 66 211 4.0 8.0 0.00 0.00 0.00 47 1007.3
20260508193949 66 193 4.0 7.0 0.00 0.00 0.00 53 1007.4
20260508193415 65 118 2.0 7.0 0.00 0.00 0.00 49 1007.4
20260508192952 65 178 1.0 4.0 0.00 0.00 0.00 50 1007.6
20260508192418 64 177 2.0 6.0 0.00 0.00 0.00 49 1007.6
20260508191926 65 209 2.0 5.0 0.00 0.00 0.00 50 1007.7
20260508191436 65 210 3.0 5.0 0.00 0.00 0.00 51 1007.7
20260508190923 65 185 1.0 3.0 0.00 0.00 0.00 51 1007.8
20260508190431 65 159 1.0 10.0 0.00 0.00 0.00 51 1007.8
20260508185942 65 159 4.0 10.0 0.00 0.00 0.00 51 1007.9
20260508185429 65 213 3.0 7.0 0.00 0.00 0.00 52 1007.9
20260508184919 65 159 5.0 7.0 0.00 0.00 0.00 50 1008.0
20260508184445 64 184 3.0 7.0 0.00 0.00 0.00 49 1008.0
20260508183932 64 210 2.0 7.0 0.00 0.00 0.00 50 1008.0
20260508183440 64 206 1.0 7.0 0.00 0.00 0.00 55 1008.1
20260508182928 64 200 2.0 7.0 0.00 0.00 0.00 55 1008.1
20260508182416 64 283 2.0 5.0 0.00 0.00 0.00 55 1008.2
20260508181925 64 207 3.0 5.0 0.00 0.00 0.00 58 1008.3
20260508181415 64 218 1.0 6.0 0.00 0.00 0.00 58 1008.4
20260508180924 64 218 4.0 7.0 0.00 0.00 0.00 57 1008.3
20260508180433 64 191 4.0 7.0 0.00 0.00 0.00 57 1008.3
20260508175951 63 182 1.0 6.0 0.00 0.00 0.00 59 1008.4
20260508175433 63 207 2.0 6.0 0.00 0.00 0.00 63 1008.6
20260508174941 63 198 3.0 7.0 0.00 0.00 0.00 62 1008.8
20260508174425 62 250 3.0 8.0 0.00 0.00 0.00 65 1008.9
20260508173914 62 157 2.0 8.0 0.00 0.00 0.00 64 1009.0
20260508173422 62 38 4.0 7.0 0.00 0.00 0.00 64 1009.0
20260508172932 63 198 4.0 7.0 0.00 0.00 0.00 65 1009.1
20260508172440 62 207 1.0 8.0 0.00 0.00 0.00 64 1009.1
20260508171926 62 191 3.0 8.0 0.00 0.00 0.00 65 1009.4
20260508171418 62 116 5.0 7.0 0.00 0.00 0.00 65 1009.4
20260508170927 62 134 2.0 6.0 0.00 0.00 0.00 63 1009.5
20260508170414 62 214 2.0 6.0 0.00 0.00 0.00 64 1009.5
20260508165945 62 217 1.0 5.0 0.00 0.00 0.00 66 1009.5
20260508165432 62 218 2.0 5.0 0.00 0.00 0.00 66 1009.6
20260508164941 61 213 1.0 6.0 0.00 0.00 0.00 68 1009.7
20260508164424 61 215 3.0 6.0 0.00 0.00 0.00 67 1009.7
20260508163931 61 215 1.0 6.0 0.00 0.00 0.00 68 1009.8
20260508163441 61 216 3.0 6.0 0.00 0.00 0.00 67 1010.0
20260508162921 61 214 3.0 5.0 0.00 0.00 0.00 67 1010.0
20260508162427 60 155 2.0 10.0 0.00 0.00 0.00 68 1010.1
20260508161914 60 205 4.0 10.0 0.00 0.00 0.00 67 1010.2
20260508161427 60 54 1.0 8.0 0.00 0.00 0.00 68 1010.2
20260508160917 60 116 3.0 7.0 0.00 0.00 0.00 69 1010.1
20260508160453 60 131 1.0 7.0 0.00 0.00 0.00 69 1010.1
20260508155939 60 360 1.0 5.0 0.00 0.00 0.00 71 1010.1
20260508155424 59 203 1.0 7.0 0.00 0.00 0.00 70 1010.3
20260508154914 59 191 4.0 7.0 0.00 0.00 0.00 70 1010.3
20260508154426 59 220 1.0 4.0 0.00 0.00 0.00 72 1010.3
20260508153913 59 205 2.0 7.0 0.00 0.00 0.00 71 1010.3
20260508153446 58 199 3.0 7.0 0.00 0.00 0.00 70 1010.4
20260508152916 58 208 1.0 7.0 0.00 0.00 0.00 71 1010.4
20260508152451 58 213 2.0 4.0 0.00 0.00 0.00 71 1010.4
20260508151919 58 187 1.0 6.0 0.00 0.00 0.00 73 1010.5
20260508151428 58 223 2.0 6.0 0.00 0.00 0.00 74 1010.4
20260508150918 58 207 2.0 6.0 0.00 0.00 0.00 74 1010.6
20260508150425 57 200 1.0 6.0 0.00 0.00 0.00 75 1010.6
20260508145919 57 200 2.0 6.0 0.00 0.00 0.00 74 1010.6
20260508145428 57 196 4.0 6.0 0.00 0.00 0.00 73 1010.8
20260508144915 57 186 3.0 5.0 0.00 0.00 0.00 74 1010.6
20260508144421 57 184 1.0 3.0 0.00 0.00 0.00 73 1010.8
20260508143927 57 180 1.0 4.0 0.00 0.00 0.00 73 1010.8
20260508143417 57 171 2.0 4.0 0.00 0.00 0.00 73 1010.8
20260508142929 56 178 0.0 3.0 0.00 0.00 0.00 75 1010.8
20260508142438 56 178 0.0 3.0 0.00 0.00 0.00 75 1010.9
20260508141944 55 180 0.0 3.0 0.00 0.00 0.00 77 1010.9
20260508141414 55 181 1.0 3.0 0.00 0.00 0.00 76 1010.9
20260508140921 54 181 0.0 2.0 0.00 0.00 0.00 78 1010.9
20260508140430 53 31 0.0 3.0 0.00 0.00 0.00 78 1010.9
20260508135942 53 19 2.0 4.0 0.00 0.00 0.00 79 1010.9
20260508135453 52 15 1.0 5.0 0.00 0.00 0.00 79 1010.9
20260508134939 52 13 2.0 5.0 0.00 0.00 0.00 79 1011.0
20260508134428 52 13 2.0 5.0 0.00 0.00 0.00 78 1011.1
20260508133917 51 14 2.0 4.0 0.00 0.00 0.00 79 1010.9
20260508133425 51 13 2.0 4.0 0.00 0.00 0.00 81 1010.9
20260508132916 50 12 3.0 4.0 0.00 0.00 0.00 83 1010.9
20260508132423 49 11 1.0 4.0 0.00 0.00 0.00 86 1010.8
20260508131932 49 12 3.0 4.0 0.00 0.00 0.00 84 1010.9
20260508131423 49 13 2.0 3.0 0.00 0.00 0.00 88 1010.9
20260508130931 48 13 1.0 3.0 0.00 0.00 0.00 89 1010.9
20260508130419 48 14 1.0 2.0 0.00 0.00 0.00 90 1010.9
20260508125932 48 14 0.0 1.0 0.00 0.00 0.00 91 1011.0
20260508125437 47 14 0.0 2.0 0.00 0.00 0.00 91 1011.0
20260508124945 47 15 1.0 2.0 0.00 0.00 0.00 91 1010.6
20260508124416 46 18 0.0 1.0 0.00 0.00 0.00 92 1010.6
20260508123926 46 16 0.0 1.0 0.00 0.00 0.00 91 1010.8
20260508123414 46 16 0.0 2.0 0.00 0.00 0.00 91 1011.0
20260508122943 46 17 0.0 2.0 0.00 0.00 0.00 92 1011.1
20260508122427 46 19 0.0 1.0 0.00 0.00 0.00 92 1011.0
20260508121916 45 25 0.0 2.0 0.00 0.00 0.00 91 1011.1
20260508121429 45 27 0.0 2.0 0.00 0.00 0.00 92 1011.0
20260508120935 45 26 0.0 1.0 0.00 0.00 0.00 92 1010.9
20260508120446 45 26 0.0 1.0 0.00 0.00 0.00 91 1010.8
20260508115932 45 26 0.0 2.0 0.00 0.00 0.00 92 1011.0
20260508115441 44 24 1.0 2.0 0.00 0.00 0.00 92 1010.9
20260508114948 44 26 0.0 0.0 0.00 0.00 0.00 91 1010.9
20260508114417 44 31 0.0 0.0 0.00 0.00 0.00 91 1010.9
20260508113925 44 32 0.0 0.0 0.00 0.00 0.00 91 1010.8
20260508113431 44 32 0.0 0.0 0.00 0.00 0.00 91 1010.8
20260508112943 44 30 0.0 0.0 0.00 0.00 0.00 91 1010.6
20260508112430 43 32 0.0 0.0 0.00 0.00 0.00 91 1010.5
20260508111918 43 30 0.0 0.0 0.00 0.00 0.00 91 1010.5
20260508111429 43 31 0.0 0.0 0.00 0.00 0.00 91 1010.5
20260508110916 43 34 0.0 0.0 0.00 0.00 0.00 91 1010.5
20260508110426 42 30 0.0 0.0 0.00 0.00 0.00 91 1010.5
20260508105915 42 34 0.0 0.0 0.00 0.00 0.00 91 1010.5
20260508105419 42 36 0.0 0.0 0.00 0.00 0.00 90 1010.6
20260508104926 42 36 0.0 0.0 0.00 0.00 0.00 90 1010.5
20260508104438 42 33 0.0 0.0 0.00 0.00 0.00 90 1010.6
20260508103947 42 33 0.0 0.0 0.00 0.00 0.00 90 1010.5
20260508103414 42 34 0.0 0.0 0.00 0.00 0.00 90 1010.7
20260508102944 42 32 0.0 0.0 0.00 0.00 0.00 90 1010.8
20260508102430 42 34 0.0 0.0 0.00 0.00 0.00 90 1010.7
20260508101918 42 32 0.0 0.0 0.00 0.00 0.00 90 1010.6
20260508101428 42 31 0.0 0.0 0.00 0.00 0.00 90 1010.8
20260508100917 42 32 0.0 0.0 0.00 0.00 0.00 90 1010.6
20260508100427 41 31 0.0 0.0 0.00 0.00 0.00 89 1010.6
20260508095918 41 32 0.0 0.0 0.00 0.00 0.00 89 1010.5
20260508095422 41 30 0.0 0.0 0.00 0.00 0.00 89 1010.6
20260508094931 42 30 0.0 0.0 0.00 0.00 0.00 89 1010.6
20260508094420 42 31 0.0 0.0 0.00 0.00 0.00 89 1010.9
20260508093930 42 30 0.0 0.0 0.00 0.00 0.00 89 1010.8
20260508093418 42 32 0.0 0.0 0.00 0.00 0.00 89 1010.9
20260508092928 42 34 0.0 0.0 0.00 0.00 0.00 89 1010.9
20260508092415 42 32 0.0 0.0 0.00 0.00 0.00 89 1011.0
20260508091921 42 34 0.0 0.0 0.00 0.00 0.00 88 1010.9
20260508091434 43 32 0.0 0.0 0.00 0.00 0.00 88 1010.7
20260508090942 43 33 0.0 0.0 0.00 0.00 0.00 88 1010.8
20260508090430 43 34 0.0 0.0 0.00 0.00 0.00 88 1010.8
20260508085923 43 34 0.0 0.0 0.00 0.00 0.00 88 1010.8
20260508085431 43 32 0.0 0.0 0.00 0.00 0.00 88 1010.9
20260508085003 43 32 0.0 0.0 0.00 0.00 0.00 88 1011.0
20260508084426 43 31 0.0 0.0 0.00 0.00 0.00 88 1011.4
20260508084004 43 32 0.0 0.0 0.00 0.00 0.00 88 1011.0
20260508083449 43 29 0.0 0.0 0.00 0.00 0.00 87 1011.0
20260508082920 43 26 0.0 0.0 0.00 0.00 0.00 87 1011.1
20260508082429 44 26 0.0 0.0 0.00 0.00 0.00 87 1011.0
20260508081938 44 26 0.0 0.0 0.00 0.00 0.00 87 1011.0
20260508081456 44 25 0.0 0.0 0.00 0.00 0.00 87 1011.0
20260508080942 44 26 0.0 0.0 0.00 0.00 0.00 86 1011.1
20260508080447 44 25 0.0 0.0 0.00 0.00 0.00 86 1011.0
20260508075919 44 27 0.0 0.0 0.00 0.00 0.00 85 1011.0
20260508075428 44 26 0.0 0.0 0.00 0.00 0.00 85 1010.9
20260508074916 45 26 0.0 0.0 0.00 0.00 0.00 85 1011.1
20260508074425 45 28 0.0 0.0 0.00 0.00 0.00 84 1011.2
20260508073934 45 25 0.0 0.0 0.00 0.00 0.00 84 1011.2
20260508073424 46 28 0.0 0.0 0.00 0.00 0.00 84 1011.3
20260508072934 46 28 0.0 0.0 0.00 0.00 0.00 84 1011.3
20260508072418 46 26 0.0 0.0 0.00 0.00 0.00 83 1011.3
20260508071926 47 25 0.0 0.0 0.00 0.00 0.00 83 1011.4
20260508071418 47 22 0.0 0.0 0.00 0.00 0.00 83 1011.3
20260508070925 47 29 0.0 0.0 0.00 0.00 0.00 84 1011.3
20260508070433 47 23 0.0 2.0 0.00 0.00 0.00 83 1011.4
20260508065942 47 22 0.0 3.0 0.00 0.00 0.00 83 1011.4
20260508065429 47 24 2.0 3.0 0.00 0.00 0.00 83 1011.4
20260508064916 48 20 2.0 2.0 0.00 0.00 0.00 83 1011.4
20260508064427 48 23 0.0 2.0 0.00 0.00 0.00 83 1011.4
20260508063937 48 22 1.0 3.0 0.00 0.00 0.00 83 1011.3
20260508063423 48 20 2.0 3.0 0.00 0.00 0.00 82 1011.3
20260508062935 48 19 2.0 2.0 0.00 0.00 0.00 82 1011.4
20260508062443 48 20 1.0 2.0 0.00 0.00 0.00 82 1011.3
20260508061950 48 22 0.0 2.0 0.00 0.00 0.00 82 1011.4
20260508061419 48 21 1.0 3.0 0.00 0.00 0.00 82 1011.3
20260508060927 48 20 2.0 3.0 0.00 0.00 0.00 82 1011.4
20260508060417 48 21 1.0 3.0 0.00 0.00 0.00 81 1011.4
20260508055923 48 21 2.0 3.0 0.00 0.00 0.00 81 1011.4
20260508055431 48 18 1.0 4.0 0.00 0.00 0.00 81 1011.3
20260508054919 48 19 2.0 4.0 0.00 0.00 0.00 80 1011.3
20260508054430 49 18 0.0 0.0 0.00 0.00 0.00 80 1011.3
20260508053919 49 17 0.0 3.0 0.00 0.00 0.00 80 1011.2
20260508053427 49 17 1.0 3.0 0.00 0.00 0.00 79 1011.2
20260508052918 49 17 2.0 2.0 0.00 0.00 0.00 79 1011.2
20260508052423 49 17 0.0 0.0 0.00 0.00 0.00 78 1011.1
20260508051929 49 17 0.0 0.0 0.00 0.00 0.00 78 1011.1
20260508051442 49 18 0.0 0.0 0.00 0.00 0.00 77 1011.1
20260508050929 50 17 0.0 0.0 0.00 0.00 0.00 77 1011.1
20260508050416 50 15 0.0 0.0 0.00 0.00 0.00 76 1011.1
20260508045922 50 15 0.0 0.0 0.00 0.00 0.00 75 1011.2
20260508045426 50 16 0.0 0.0 0.00 0.00 0.00 75 1011.2
20260508044932 51 15 0.0 0.0 0.00 0.00 0.00 74 1011.0
20260508044425 51 15 0.0 0.0 0.00 0.00 0.00 74 1011.0
20260508043935 51 15 0.0 0.0 0.00 0.00 0.00 73 1011.0
20260508043440 51 17 0.0 0.0 0.00 0.00 0.00 73 1011.0
20260508042925 51 17 0.0 2.0 0.00 0.00 0.00 73 1011.0
20260508042434 52 17 1.0 2.0 0.00 0.00 0.00 72 1011.0
20260508041923 52 15 1.0 2.0 0.00 0.00 0.00 72 1011.0
20260508041417 52 15 1.0 3.0 0.00 0.00 0.00 72 1010.8
20260508040933 52 15 1.0 3.0 0.00 0.00 0.00 71 1010.8
20260508040443 52 15 2.0 5.0 0.00 0.00 0.00 71 1010.7
20260508035932 52 15 2.0 5.0 0.00 0.00 0.00 71 1010.8
20260508035435 52 15 3.0 5.0 0.00 0.00 0.00 71 1010.8
20260508034943 52 15 1.0 6.0 0.00 0.00 0.00 71 1010.8
20260508034426 52 15 3.0 6.0 0.00 0.00 0.00 71 1010.7
20260508033933 52 15 3.0 5.0 0.00 0.00 0.00 72 1010.7
20260508033442 51 15 3.0 4.0 0.00 0.00 0.00 72 1010.7
20260508032925 51 16 2.0 5.0 0.00 0.00 0.00 73 1010.8
20260508032433 51 15 3.0 5.0 0.00 0.00 0.00 74 1010.7
20260508031940 50 15 3.0 4.0 0.00 0.00 0.00 75 1010.8
20260508031429 49 19 1.0 3.0 0.00 0.00 0.00 78 1010.8
20260508030918 48 17 0.0 0.0 0.00 0.00 0.00 78 1010.7
20260508030427 48 17 0.0 0.0 0.00 0.00 0.00 76 1010.8
20260508025918 49 17 0.0 0.0 0.00 0.00 0.00 74 1010.7
20260508025428 50 17 0.0 0.0 0.00 0.00 0.00 72 1010.7
20260508024916 51 16 0.0 0.0 0.00 0.00 0.00 72 1010.5
20260508024422 51 17 0.0 0.0 0.00 0.00 0.00 71 1010.4
20260508023932 51 15 0.0 0.0 0.00 0.00 0.00 71 1010.4
20260508023420 52 15 0.0 0.0 0.00 0.00 0.00 71 1010.2
20260508022948 52 15 0.0 0.0 0.00 0.00 0.00 70 1010.2
20260508022438 52 15 0.0 0.0 0.00 0.00 0.00 70 1010.2
20260508021946 52 15 0.0 0.0 0.00 0.00 0.00 70 1010.1
20260508021416 52 15 0.0 0.0 0.00 0.00 0.00 70 1010.1
20260508020926 52 15 0.0 0.0 0.00 0.00 0.00 70 1010.1
20260508020415 52 15 0.0 0.0 0.00 0.00 0.00 71 1010.1
20260508015925 52 15 0.0 0.0 0.00 0.00 0.00 71 1010.1
20260508015434 53 15 0.0 0.0 0.00 0.00 0.00 71 1010.0
20260508014923 53 15 0.0 0.0 0.00 0.00 0.00 71 1010.0
20260508014432 53 14 0.0 0.0 0.00 0.00 0.00 71 1009.9
20260508013940 53 14 0.0 0.0 0.00 0.00 0.00 71 1009.9
20260508013447 53 15 0.0 0.0 0.00 0.00 0.00 71 1009.8
20260508012936 53 15 0.0 0.0 0.00 0.00 0.00 71 1009.8
20260508012443 53 14 0.0 0.0 0.00 0.00 0.00 71 1009.7
20260508011931 54 14 0.0 0.0 0.00 0.00 0.00 71 1009.7
20260508011424 54 14 0.0 0.0 0.00 0.00 0.00 71 1009.7
20260508010933 54 14 0.0 0.0 0.00 0.00 0.00 69 1009.7
20260508010422 55 13 0.0 0.0 0.00 0.00 0.00 69 1009.6
20260508005930 55 14 0.0 0.0 0.00 0.00 0.00 68 1009.6
20260508005440 55 13 0.0 0.0 0.00 0.00 0.00 68 1009.5
20260508004944 56 13 0.0 0.0 0.00 0.00 0.00 65 1009.3
20260508004415 56 13 0.0 0.0 0.00 0.00 0.00 63 1009.3
20260508003925 56 13 0.0 0.0 0.00 0.00 0.00 63 1009.4
20260508003434 56 13 0.0 0.0 0.00 0.00 0.00 63 1009.3
20260508002921 57 14 0.0 2.0 0.00 0.00 0.00 61 1009.4
20260508002429 57 14 0.0 2.0 0.00 0.00 0.00 62 1009.4
20260508001938 57 14 0.0 2.0 0.00 0.00 0.00 62 1009.3
20260508001428 57 14 1.0 5.0 0.00 0.00 0.00 63 1009.3
20260508000937 57 15 2.0 6.0 0.00 0.00 0.00 63 1009.5
20260508000445 57 15 1.0 6.0 0.00 0.00 0.00 63 1009.5
20260507235915 56 14 2.0 4.0 0.00 0.00 0.00 65 1009.4
20260507235425 56 14 0.0 2.0 0.00 0.00 0.00 66 1009.5
20260507234929 56 15 0.0 2.0 0.00 0.00 0.00 69 1009.4
20260507234422 55 13 1.0 2.0 0.00 0.00 0.00 68 1009.6
20260507233930 55 13 0.0 2.0 0.00 0.00 0.00 68 1009.6
20260507233417 55 14 0.0 3.0 0.00 0.00 0.00 69 1009.6
20260507232927 55 15 1.0 3.0 0.00 0.00 0.00 70 1009.6
20260507232416 54 15 1.0 3.0 0.00 0.00 0.00 72 1009.7
20260507231925 53 13 1.0 3.0 0.00 0.00 0.00 74 1009.6
20260507231438 53 12 1.0 2.0 0.00 0.00 0.00 78 1009.6
20260507230948 54 12 0.0 3.0 0.00 0.00 0.00 80 1009.7
20260507230417 53 12 0.0 4.0 0.00 0.00 0.00 79 1009.8
20260507225926 53 12 1.0 4.0 0.00 0.00 0.00 78 1010.0
20260507225434 53 10 0.0 0.0 0.00 0.00 0.00 79 1010.1
20260507224923 53 9 0.0 0.0 0.00 0.00 0.00 79 1010.1
20260507224431 53 9 0.0 1.0 0.00 0.00 0.00 78 1010.1
20260507223920 53 10 0.0 2.0 0.00 0.00 0.00 80 1010.0
20260507223426 52 10 1.0 2.0 0.00 0.00 0.00 79 1010.0
20260507222937 52 11 0.0 2.0 0.00 0.00 0.00 79 1010.2
20260507222454 52 11 0.0 3.0 0.00 0.00 0.00 77 1010.4
20260507221942 52 10 1.0 3.0 0.00 0.00 0.00 77 1010.4
20260507221433 52 18 0.0 4.0 0.00 0.00 0.00 75 1010.6
20260507220940 53 17 1.0 8.0 0.00 0.00 0.00 71 1010.5
20260507220450 54 17 3.0 11.0 0.00 0.00 0.00 66 1010.8
20260507215921 55 27 5.0 13.0 0.00 0.00 0.00 60 1010.8
20260507215427 57 19 6.0 13.0 0.00 0.00 0.00 53 1010.2
20260507214915 59 17 5.0 17.0 0.00 0.00 0.00 53 1009.9
20260507214426 59 17 7.0 17.0 0.00 0.00 0.00 54 1009.7